Weather History for Seattle Boeing, WA

Change the Weather History Date:

Saturday, February 8, 2014

  Actual Average Record
Temperature  
Mean Temperature 38 °F -  
Max Temperature 43 °F 50 °F 68 °F (1963)
Min Temperature 32 °F 36 °F 27 °F (1956)
Degree Days  
Heating Degree Days 28    
Moisture  
Dew Point 22 °F    
Average Humidity 60    
Maximum Humidity 87    
Minimum Humidity 32    
Precipitation  
Precipitation 0.09 in - - ()
Sea Level Pressure  
Sea Level Pressure 29.93 in    
Wind  
Wind Speed 4 mph (NE)    
Max Wind Speed 20 mph    
Max Gust Speed 24 mph    
Visibility 7 miles    
Events Snow    
Averages and records for this station are not official NWS values.
T = Trace of Precipitation, MM = Missing Value Source: NWS Daily Summary

Daily Weather History Graph

Daily Weather History Graph

Search for Another Location

Airport:

Trip Planner

Search our weather history database for the weather conditions in past years. The results will help you decide how hot, cold, wet, or windy it might be!

Date:

Astronomy

Feb. 08, 2014 Rise Set
Actual Time 7:25 AM PST 5:21 PM PST
Civil Twilight 6:53 AM PST 5:54 PM PST
Nautical Twilight 6:16 AM PST 6:30 PM PST
Astronomical Twilight 5:41 AM PST 7:06 PM PST
Moon 12:13 PM PST (2/8) 2:49 AM PST (2/8)
Length of Visible Light 11h 00m
Length of Day
9h 56m
Waxing Gibbous, 69% of the Moon is Illuminated
Feb 8
Waxing Gibbous
Feb 14
Full
Feb 22
Last Quarter
Mar 1
New
Mar 8
First Quarter

Hourly Weather History & Observations

Time (PST) Temp. Windchill Dew Point Humidity Pressure Visibility Wind Dir Wind Speed Gust Speed Precip Events Conditions
12:53 AM 32.0 °F 28.7 °F 12.0 °F 44% 29.86 in 10.0 mi NNW 3.5 mph - N/A   Scattered Clouds
1:53 AM 32.0 °F 27.5 °F 12.9 °F 45% 29.89 in 10.0 mi North 4.6 mph - N/A   Mostly Cloudy
2:53 AM 34.0 °F 29.8 °F 15.1 °F 46% 29.92 in 10.0 mi North 4.6 mph - N/A   Overcast
3:53 AM 34.0 °F - 17.1 °F 50% 29.96 in 10.0 mi Calm Calm - N/A   Overcast
4:53 AM 34.0 °F - 18.0 °F 52% 29.98 in 10.0 mi Calm Calm - N/A   Overcast
5:53 AM 33.1 °F 28.7 °F 14.0 °F 46% 29.99 in 10.0 mi East 4.6 mph - N/A   Overcast
6:53 AM 32.0 °F - 21.0 °F 64% 30.00 in 10.0 mi Calm Calm - N/A   Mostly Cloudy
7:53 AM 32.0 °F - 21.9 °F 66% 30.02 in 10.0 mi Calm Calm - N/A   Overcast
8:53 AM 34.0 °F - 21.9 °F 61% 30.02 in 10.0 mi Calm Calm - N/A   Overcast
9:53 AM 36.0 °F 33.3 °F 19.0 °F 50% 30.03 in 10.0 mi WNW 3.5 mph - N/A   Scattered Clouds
10:53 AM 37.9 °F 34.4 °F 17.1 °F 43% 30.03 in 10.0 mi NW 4.6 mph - N/A   Scattered Clouds
11:53 AM 39.0 °F - 18.0 °F 43% 29.99 in 10.0 mi Calm Calm - N/A   Mostly Cloudy
12:53 PM 43.0 °F 39.5 °F 15.1 °F 32% 29.95 in 10.0 mi NE 5.8 mph - N/A   Mostly Cloudy
1:53 PM 42.1 °F 39.2 °F 18.0 °F 38% 29.91 in 10.0 mi Variable 4.6 mph - N/A   Mostly Cloudy
2:53 PM 42.1 °F 38.4 °F 18.0 °F 38% 29.88 in 10.0 mi North 5.8 mph - N/A   Overcast
3:53 PM 43.0 °F 41.3 °F 16.0 °F 34% 29.85 in 10.0 mi ENE 3.5 mph - N/A   Clear
4:53 PM 39.9 °F - 18.0 °F 41% 29.87 in 10.0 mi Calm Calm - N/A   Mostly Cloudy
5:53 PM 39.0 °F 29.3 °F 19.0 °F 45% 29.88 in 10.0 mi SE 19.6 mph 24.2 mph N/A   Overcast
6:09 PM 35.6 °F 25.5 °F 24.8 °F 65% 29.88 in 3.0 mi SE 17.3 mph - 0.00 in Snow Light Snow
6:29 PM 33.8 °F 27.7 °F 26.6 °F 75% 29.88 in 2.0 mi ESE 6.9 mph - 0.00 in Snow Light Snow
6:50 PM 33.8 °F - 28.4 °F 81% 29.88 in 1.2 mi Calm Calm - 0.00 in Snow Light Snow
6:53 PM 33.1 °F - 28.9 °F 85% 29.88 in 1.2 mi Calm Calm - 0.00 in Snow Light Snow
7:15 PM 33.8 °F 30.8 °F 30.2 °F 87% 29.88 in 1.5 mi Variable 3.5 mph - 0.00 in Snow Light Snow
7:53 PM 35.1 °F 27.9 °F 30.0 °F 82% 29.88 in 1.5 mi North 9.2 mph - 0.00 in Snow Light Snow
8:53 PM 34.0 °F 28.8 °F 28.9 °F 82% 29.88 in 1.0 mi Variable 5.8 mph - 0.02 in Snow Light Snow
9:53 PM 34.0 °F - 30.0 °F 85% 29.92 in 1.0 mi Calm Calm - 0.03 in Snow Light Snow
10:53 PM 33.1 °F 27.7 °F 28.9 °F 85% 29.92 in 1.2 mi SE 5.8 mph - 0.04 in Snow Light Snow
11:35 PM 33.8 °F - 28.4 °F 81% 29.95 in 2.5 mi Calm Calm - 0.00 in Snow Light Snow
11:43 PM 33.8 °F - 28.4 °F 81% 29.96 in 3.0 mi Calm Calm - 0.00 in Snow Light Snow
11:53 PM 33.1 °F - 28.0 °F 82% 29.96 in 4.0 mi Calm Calm - 0.00 in Snow Light Snow